Terminal Aerodrome Forecast
Issued by NWS

Home | Current Version | Previous Version | Graphics & Text | Print | Product List | Glossary On
Versions: 1 2 3 4 5 6 7 8 9 10 11 12 13
000
FTUS43 KUNR 221720
TAFGCC
TAF
KGCC 221720Z 2218/2318 11010KT P6SM SCT100
     FM230500 17016KT P6SM SCT100=

USA.gov is the U.S. government's official web portal to all federal, state and local government web resources and services.